Regional Weather Roundup
Issued by NWS

Home | Current Version | Previous Version | Graphics & Text | Print | Product List | Glossary On
Versions: 1 2 3 4 5 6 7 8 9 10 11 12 13 14 15 16 17 18 19 20 21 22 23 24 25 26 27 28 29 30 31 32 33 34 35 36 37 38 39 40 41 42 43 44 45 46 47 48 49 50
000
ASUS43 KIND 220809
RWRIN

WEATHER ROUNDUP FOR INDIANA
NATIONAL WEATHER SERVICE INDIANAPOLIS IN
400 AM EDT WED OCT 22 2014

NOTE: "FAIR" INDICATES FEW OR NO CLOUDS BELOW 12,000 FEET WITH NO
SIGNIFICANT WEATHER AND/OR OBSTRUCTIONS TO VISIBILITY.

* - STATION DOES NOT REPORT WEATHER SUCH AS PRECIPITATION OR FOG.

+ - STATION NOT QUALITY CONTROLLED BY THE NATIONAL WEATHER SERVICE.
    USE DATA WITH CAUTION...ESPECIALLY DEWPOINT AND RELATIVE
    HUMIDITY OBSERVATIONS.

INZ001>003-010>013-019-020-220900-
NORTHWEST INDIANA

CITY           SKY/WX    TMP DP  RH WIND       PRES   REMARKS
GARY /AIRPORT/ CLEAR     35  34  96 CALM      30.28R FOG
KNOX *+        CLEAR     33  32  96 CALM      30.27R
LA PORTE +     PTCLDY    35  35 100 NE5       30.28R WCI  31
MICHIGAN CITY+ CLEAR     32  32 100 CALM      30.29R
MONTICELLO +   CLEAR     36  35  94 CALM      30.25S
RENSSELAER +   CLEAR     39  37  93 NE3       30.27S
VALPARAISO     CLEAR     36  34  92 CALM      30.27R

$$

LMZ046-743>745-220900-
SOUTHERN LAKE MICHIGAN

STATION/POSITION TIME  TEMP WIND        PRES
                       AIR  DIR/SP/G
                 (UTC) (F)  (DEG/KT/KT) (MB)
MICHIGAN CITY    0700   42  110/  6/  6   N/A

$$

INZ004-005-014>016-021>024-220900-
NORTH CENTRAL INDIANA

CITY           SKY/WX    TMP DP  RH WIND       PRES   REMARKS
GOSHEN         CLEAR     36  33  89 N5        30.26R
LOGANSPORT +   CLEAR     36  34  93 N3        30.27R
PERU/GRISSOM   CLEAR     39  39  97 N6        30.25R
ROCHESTER +    CLEAR     39  37  93 CALM      30.27R
SOUTH BEND     CLEAR     35  32  88 CALM      30.28R
WARSAW +       CLEAR     34  34 100 CALM      30.26S

$$

INZ006>009-017-018-025>027-220900-
NORTHEAST INDIANA

CITY           SKY/WX    TMP DP  RH WIND       PRES   REMARKS
ANGOLA *+      PTCLDY    36  18  48 N3        30.25R
AUBURN +       MOCLDY    37  34  87 N5        30.25R
FORT WAYNE     PTCLDY    37  34  89 N6        30.25R
HUNTINGTON +   CLEAR     36  35  95 CALM      30.24R

$$

INZ028-029-035-036-043>045-051>053-220900-
WEST CENTRAL INDIANA

CITY           SKY/WX    TMP DP  RH WIND       PRES   REMARKS
CRAWFORDSVL +  CLEAR     32  32 100 CALM      30.25  FOG
GREENCASTLE +  CLEAR     37  36  93 N3        30.24S
LAFAYETTE      CLEAR     36  35  96 NE3       30.26R
TERRE HAUTE    CLEAR     40  38  93 N5        30.24R

$$

INZ030>032-037>040-046>048-054>057-064-065-220900-
CENTRAL INDIANA

CITY           SKY/WX    TMP DP  RH WIND       PRES   REMARKS
CP ATTERBURY + MOCLDY    43  37  81 N3        30.23S
FRANKFORT +    CLEAR     37  37 100 N5        30.26S
INDIANAPOLIS   CLEAR     42  34  73 N7        30.23R
-EAGLE CREEK   CLEAR     42  35  76 N5        30.23R
KOKOMO *+      CLEAR     36  32  87 CALM      30.26R
MARION +       CLEAR     38  34  84 N5        30.24S
MT COMFORT *+  CLEAR     37  34  87 N6        30.24R
SHELBYVILLE    CLEAR     41  36  82 N6        30.22R
ZIONSVILLE +   CLEAR     36  33  88 N3        30.25R

$$

INZ033-034-041-042-049-050-058-059-220900-
EAST CENTRAL INDIANA

CITY           SKY/WX    TMP DP  RH WIND       PRES   REMARKS
MUNCIE         CLOUDY    42  37  82 N5        30.23R

$$

INZ060-061-067>069-081>083-085>088-220900-
SOUTHWEST INDIANA

CITY           SKY/WX    TMP DP  RH WIND       PRES   REMARKS
EVANSVILLE     CLEAR     45  41  86 N6        30.22R
HUNTINGBURG *+ CLEAR     41  37  87 NE5       30.22R
WASHINGTON +   CLEAR     41  41 100 CALM      30.23R

$$

INZ062-063-066-070>080-084-089>092-220900-
SOUTH CENTRAL AND SOUTHEAST INDIANA

CITY           SKY/WX    TMP DP  RH WIND       PRES   REMARKS
BEDFORD +      CLEAR     45  37  76 CALM      30.22R
BLOOMINGTON    CLEAR     38  37  97 CALM      30.22S
SEYMOUR +      CLEAR     41  37  87 CALM      30.22

$$




USA.gov is the U.S. government's official web portal to all federal, state and local government web resources and services.